Time,TemperatureF,DewpointF,PressureIn,WindDirection,WindDirectionDegrees,WindSpeedMPH,WindSpeedGustMPH,Humidity,HourlyPrecipIn,Conditions,Clouds,dailyrainin,SoftwareType,DateUTC
2013-03-16 00:00:00,52.0,49.7,30.01,NNE,22,0.0,14.0,92,0.00,,,-99.99,Weather View 32 v70,2013-03-16 07:00:00,
2013-03-16 00:15:00,52.0,49.7,30.00,NNE,22,0.0,14.0,92,0.00,,,-99.99,Weather View 32 v70,2013-03-16 07:15:00,
2013-03-16 00:30:00,53.0,50.1,30.00,NNE,22,0.0,9.0,90,0.00,,,-99.99,Weather View 32 v70,2013-03-16 07:30:00,
2013-03-16 00:45:00,53.0,49.8,30.00,NNE,22,0.0,8.0,89,0.00,,,-99.99,Weather View 32 v70,2013-03-16 07:45:00,
2013-03-16 01:00:00,53.0,49.8,30.01,NNW,338,0.0,6.0,89,0.00,,,-99.99,Weather View 32 v70,2013-03-16 08:00:00,
2013-03-16 01:15:00,53.0,50.1,30.01,North,0,0.0,6.0,90,0.00,,,-99.99,Weather View 32 v70,2013-03-16 08:15:00,
2013-03-16 01:30:00,53.0,49.8,30.00,North,0,0.0,6.0,89,0.00,,,-99.99,Weather View 32 v70,2013-03-16 08:30:00,
2013-03-16 01:45:00,53.0,49.5,30.01,North,0,0.0,6.0,88,0.00,,,-99.99,Weather View 32 v70,2013-03-16 08:45:00,
2013-03-16 02:15:00,53.0,50.1,29.99,NW,315,0.0,1.0,90,0.00,,,-99.99,Weather View 32 v70,2013-03-16 09:15:00,
2013-03-16 02:30:00,52.0,48.9,29.99,NNE,22,0.0,0.0,89,0.00,,,-99.99,Weather View 32 v70,2013-03-16 09:30:00,
2013-03-16 02:45:00,50.0,46.9,29.99,North,0,0.0,0.0,89,0.00,,,-99.99,Weather View 32 v70,2013-03-16 09:45:00,
2013-03-16 03:00:00,50.0,48.1,29.99,NNW,338,0.0,0.0,93,0.00,,,-99.99,Weather View 32 v70,2013-03-16 10:00:00,
2013-03-16 03:15:00,50.0,48.1,29.99,North,0,0.0,0.0,93,0.00,,,-99.99,Weather View 32 v70,2013-03-16 10:15:00,
2013-03-16 03:30:00,50.0,48.3,29.99,NNE,22,0.0,0.0,94,0.00,,,-99.99,Weather View 32 v70,2013-03-16 10:30:00,
2013-03-16 03:45:00,50.0,48.1,29.99,NNE,22,0.0,0.0,93,0.00,,,-99.99,Weather View 32 v70,2013-03-16 10:45:00,
2013-03-16 04:00:00,50.0,48.3,29.98,NNE,22,0.0,0.0,94,0.00,,,-99.99,Weather View 32 v70,2013-03-16 11:00:00,
2013-03-16 04:15:00,47.0,45.4,29.99,NNE,22,0.0,0.0,94,0.00,,,-99.99,Weather View 32 v70,2013-03-16 11:15:00,
2013-03-16 04:30:00,48.0,46.9,29.98,NNE,22,0.0,0.0,96,0.00,,,-99.99,Weather View 32 v70,2013-03-16 11:30:00,
2013-03-16 04:45:00,47.0,45.9,29.98,NNE,22,0.0,0.0,96,0.00,,,-99.99,Weather View 32 v70,2013-03-16 11:45:00,
2013-03-16 05:00:00,47.0,45.9,29.98,NW,315,0.0,0.0,96,0.00,,,-99.99,Weather View 32 v70,2013-03-16 12:00:00,
2013-03-16 05:30:00,47.0,46.2,29.98,NNW,338,0.0,0.0,97,0.00,,,-99.99,Weather View 32 v70,2013-03-16 12:30:00,
2013-03-16 05:45:00,45.0,44.2,29.98,NW,315,0.0,0.0,97,0.00,,,-99.99,Weather View 32 v70,2013-03-16 12:45:00,
2013-03-16 06:00:00,46.0,45.5,29.99,NW,315,0.0,0.0,98,0.00,,,-99.99,Weather View 32 v70,2013-03-16 13:00:00,
2013-03-16 06:15:00,46.0,45.5,29.99,NW,315,0.0,0.0,98,0.00,,,-99.99,Weather View 32 v70,2013-03-16 13:15:00,
2013-03-16 06:30:00,46.0,45.5,29.99,North,0,0.0,0.0,98,0.00,,,-99.99,Weather View 32 v70,2013-03-16 13:30:00,
2013-03-16 06:45:00,45.0,44.5,29.99,North,0,0.0,0.0,98,0.00,,,-99.99,Weather View 32 v70,2013-03-16 13:45:00,
2013-03-16 07:00:00,45.0,44.5,30.00,NW,315,0.0,0.0,98,0.00,,,-99.99,Weather View 32 v70,2013-03-16 14:00:00,
2013-03-16 07:15:00,47.0,46.7,30.00,NNE,22,0.0,0.0,99,0.00,,,-99.99,Weather View 32 v70,2013-03-16 14:15:00,
2013-03-16 07:30:00,49.0,48.7,30.01,NW,315,0.0,0.0,99,0.00,,,-99.99,Weather View 32 v70,2013-03-16 14:30:00,
2013-03-16 08:00:00,51.0,50.5,30.02,NNE,22,0.0,0.0,98,0.00,,,-99.99,Weather View 32 v70,2013-03-16 15:00:00,
2013-03-16 08:30:00,53.0,52.2,30.02,NNW,338,0.0,0.0,97,0.00,,,-99.99,Weather View 32 v70,2013-03-16 15:30:00,
2013-03-16 08:45:00,53.0,51.6,30.02,NNE,22,0.0,0.0,95,0.00,,,-99.99,Weather View 32 v70,2013-03-16 15:45:00,
2013-03-16 09:00:00,54.0,52.3,30.02,NNE,22,0.0,0.0,94,0.00,,,-99.99,Weather View 32 v70,2013-03-16 16:00:00,
2013-03-16 09:30:00,56.0,53.1,30.04,NNW,338,0.0,1.0,90,0.00,,,-99.99,Weather View 32 v70,2013-03-16 16:30:00,
2013-03-16 09:45:00,60.0,53.8,30.04,North,0,0.0,5.0,80,0.00,,,-99.99,Weather View 32 v70,2013-03-16 16:45:00,
2013-03-16 10:00:00,63.0,51.8,30.05,NNW,338,0.0,10.0,67,0.00,,,-99.99,Weather View 32 v70,2013-03-16 17:00:00,
2013-03-16 10:15:00,64.0,48.9,30.05,NNW,338,4.0,12.0,58,0.00,,,-99.99,Weather View 32 v70,2013-03-16 17:15:00,
2013-03-16 10:30:00,64.0,49.8,30.04,North,0,0.0,12.0,60,0.00,,,-99.99,Weather View 32 v70,2013-03-16 17:30:00,
2013-03-16 10:45:00,65.0,49.4,30.03,NNE,22,0.0,12.0,57,0.00,,,-99.99,Weather View 32 v70,2013-03-16 17:45:00,
2013-03-16 11:00:00,66.0,49.3,30.03,NNE,22,0.0,12.0,55,0.00,,,-99.99,Weather View 32 v70,2013-03-16 18:00:00,
2013-03-16 11:15:00,66.0,53.4,30.03,North,0,0.0,10.0,64,0.00,,,-99.99,Weather View 32 v70,2013-03-16 18:15:00,
2013-03-16 11:30:00,67.0,54.4,30.03,NNE,22,0.0,8.0,64,0.00,,,-99.99,Weather View 32 v70,2013-03-16 18:30:00,
2013-03-16 11:45:00,68.0,50.7,30.03,NNE,22,0.0,8.0,54,0.00,,,-99.99,Weather View 32 v70,2013-03-16 18:45:00,
2013-03-16 12:00:00,69.0,51.6,30.02,NNE,22,0.0,8.0,54,0.00,,,-99.99,Weather View 32 v70,2013-03-16 19:00:00,
2013-03-16 12:15:00,70.0,51.0,30.02,NNW,338,0.0,8.0,51,0.00,,,-99.99,Weather View 32 v70,2013-03-16 19:15:00,
2013-03-16 12:45:00,70.0,51.0,30.02,NW,315,0.0,10.0,51,0.00,,,-99.99,Weather View 32 v70,2013-03-16 19:45:00,
2013-03-16 13:00:00,72.0,52.8,30.02,NNE,22,0.0,10.0,51,0.00,,,-99.99,Weather View 32 v70,2013-03-16 20:00:00,
2013-03-16 13:45:00,74.0,50.0,30.01,North,0,5.0,12.0,43,0.00,,,-99.99,Weather View 32 v70,2013-03-16 20:45:00,
2013-03-16 14:00:00,74.0,49.4,30.01,North,0,2.0,17.0,42,0.00,,,-99.99,Weather View 32 v70,2013-03-16 21:00:00,
2013-03-16 14:15:00,73.0,49.1,30.00,NNE,22,13.0,17.0,43,0.00,,,-99.99,Weather View 32 v70,2013-03-16 21:15:00,
2013-03-16 14:30:00,73.0,48.5,30.01,NNW,338,7.0,18.0,42,0.00,,,-99.99,Weather View 32 v70,2013-03-16 21:30:00,
2013-03-16 14:45:00,73.0,48.5,30.00,NNW,338,0.0,18.0,42,0.00,,,-99.99,Weather View 32 v70,2013-03-16 21:45:00,
2013-03-16 15:00:00,72.0,46.9,30.00,North,0,8.0,18.0,41,0.00,,,-99.99,Weather View 32 v70,2013-03-16 22:00:00,
2013-03-16 15:15:00,72.0,46.9,30.00,NW,315,2.0,18.0,41,0.00,,,-99.99,Weather View 32 v70,2013-03-16 22:15:00,
2013-03-16 15:45:00,71.0,45.4,29.99,North,0,11.0,24.0,40,0.00,,,-99.99,Weather View 32 v70,2013-03-16 22:45:00,
2013-03-16 16:00:00,70.0,45.8,29.99,North,0,13.0,24.0,42,0.00,,,-99.99,Weather View 32 v70,2013-03-16 23:00:00,
2013-03-16 16:15:00,69.0,45.5,29.99,NNE,22,11.0,24.0,43,0.00,,,-99.99,Weather View 32 v70,2013-03-16 23:15:00,
2013-03-16 16:30:00,69.0,46.1,29.99,North,0,5.0,24.0,44,0.00,,,-99.99,Weather View 32 v70,2013-03-16 23:30:00,
2013-03-16 16:45:00,68.0,45.8,29.99,North,0,21.0,23.0,45,0.00,,,-99.99,Weather View 32 v70,2013-03-16 23:45:00,
2013-03-16 17:00:00,67.0,46.1,29.99,NNW,338,18.0,23.0,47,0.00,,,-99.99,Weather View 32 v70,2013-03-17 00:00:00,
2013-03-16 17:30:00,65.0,45.9,30.00,NNW,338,5.0,22.0,50,0.00,,,-99.99,Weather View 32 v70,2013-03-17 00:30:00,
2013-03-16 17:45:00,65.0,47.4,30.00,NNE,22,9.0,22.0,53,0.00,,,-99.99,Weather View 32 v70,2013-03-17 00:45:00,
2013-03-16 18:00:00,63.0,46.5,30.00,NNW,338,11.0,21.0,55,0.00,,,-99.99,Weather View 32 v70,2013-03-17 01:00:00,
2013-03-16 18:15:00,62.0,46.6,29.99,NNW,338,10.0,23.0,57,0.00,,,-99.99,Weather View 32 v70,2013-03-17 01:15:00,
2013-03-16 18:30:00,63.0,46.1,29.99,North,0,11.0,23.0,54,0.00,,,-99.99,Weather View 32 v70,2013-03-17 01:30:00,
2013-03-16 19:00:00,62.0,46.1,29.99,North,0,18.0,26.0,56,0.00,,,-99.99,Weather View 32 v70,2013-03-17 02:00:00,
2013-03-16 19:15:00,60.0,46.0,29.99,North,0,10.0,27.0,60,0.00,,,-99.99,Weather View 32 v70,2013-03-17 02:15:00,
2013-03-16 19:30:00,60.0,46.9,29.99,NW,315,13.0,27.0,62,0.00,,,-99.99,Weather View 32 v70,2013-03-17 02:30:00,
2013-03-16 20:00:00,60.0,46.5,30.00,NNE,22,11.0,27.0,61,0.00,,,-99.99,Weather View 32 v70,2013-03-17 03:00:00,
2013-03-16 20:15:00,60.0,46.5,30.00,NNW,338,14.0,27.0,61,0.00,,,-99.99,Weather View 32 v70,2013-03-17 03:15:00,
2013-03-16 20:30:00,59.0,46.0,30.01,North,0,13.0,23.0,62,0.00,,,-99.99,Weather View 32 v70,2013-03-17 03:30:00,
2013-03-16 20:45:00,59.0,46.4,30.01,NNE,22,10.0,23.0,63,0.00,,,-99.99,Weather View 32 v70,2013-03-17 03:45:00,
2013-03-16 21:00:00,59.0,46.0,30.02,North,0,13.0,23.0,62,0.00,,,-99.99,Weather View 32 v70,2013-03-17 04:00:00,
2013-03-16 21:15:00,59.0,46.0,30.02,North,0,11.0,23.0,62,0.00,,,-99.99,Weather View 32 v70,2013-03-17 04:15:00,
2013-03-16 21:30:00,59.0,46.4,30.02,North,0,14.0,23.0,63,0.00,,,-99.99,Weather View 32 v70,2013-03-17 04:30:00,
2013-03-16 21:45:00,57.0,45.7,30.04,NNE,22,0.0,23.0,66,0.00,,,-99.99,Weather View 32 v70,2013-03-17 04:45:00,
2013-03-16 22:00:00,55.0,46.8,30.04,NNE,22,0.0,21.0,74,0.00,,,-99.99,Weather View 32 v70,2013-03-17 05:00:00,
2013-03-16 23:00:00,57.0,45.7,30.02,NNE,22,10.0,20.0,66,0.00,,,-99.99,Weather View 32 v70,2013-03-17 06:00:00,
2013-03-16 23:30:00,57.0,45.3,30.01,North,0,13.0,20.0,65,0.00,,,-99.99,Weather View 32 v70,2013-03-17 06:30:00,